Home > Weather > Schwedt/Oder > Past weeks

Flag for Germany Past Weather in Schwedt/Oder, Brandenburg, Germany — Yesterday and Last 2 Weeks

Now
66 °F

Passing clouds.


Feels Like: 66 °F
Forecast: 58 / 73 °F
Wind: 3 mph from Northwest

Location: Szczecin Airport

Current Time: Jul 31, 2016 at 9:25:05 AM

Latest Report: Jul 31, 2016 at 9:00 AM


Visibility: N/A

Pressure: 29.89 "Hg

Humidity: 83%

Dew Point: 61 °F

Location of Schwedt/OderLocation

Past Weather in Schwedt/Oder — Graph

°F

Schwedt/Oder Temperature Yesterday

Maximum temperature yesterday: 75 °F (at 4:00 PM)
Minimum temperature yesterday: 59 °F (at 12:30 AM)
Average temperature yesterday: 67 °F

High & Low Weather Summary for the Past Weeks

 TemperatureHumidityPressure
High84 °F (Jul 25, 4:30 PM)100% (Jul 17, 2:30 AM)30.21 "Hg (Jul 17, 2:30 AM)
Low48 °F (Jul 20, 5:00 AM)37% (Jul 21, 5:00 PM)29.80 "Hg (Jul 29, 6:00 PM)
Average67 °F76%30.03 "Hg
* Reported Jul 16 8:00 AM — Jul 31 8:00 AM, Schwedt/Oder, Weather by CustomWeather, © 2016

Note: Actual official high and low records may vary slightly from our data, if they occured in-between our weather recording intervals... More about our weather records

Advertising

Schwedt/Oder Weather History for the Previous 24 Hours

Scroll right to see more
 ConditionsComfort  
Time TempWeatherWind HumidityBarometerVisibility
8:00 AM
Sun, Jul 31
63 °FSunny.1 mph94%29.89 "Hg10 mi
7:30 AM63 °FSunny.1 mph88%29.89 "Hg10 mi
7:00 AM61 °FSunny.2 mph88%29.89 "Hg10 mi
6:30 AM59 °FSunny.2 mph94%29.89 "Hg10 mi
6:00 AM57 °FFog.No wind94%29.89 "HgN/A
5:30 AM55 °FFog.2 mph100%29.89 "HgN/A
5:00 AM55 °FClear.3 mph100%29.89 "Hg10 mi
4:30 AM57 °FClear.No wind94%29.89 "Hg10 mi
4:00 AM59 °FFog.2 mph94%29.89 "HgN/A
3:30 AM57 °FFog.2 mph94%29.89 "HgN/A
3:00 AM59 °FFog.1 mph94%29.86 "HgN/A
2:30 AM59 °FClear.1 mph94%29.86 "Hg10 mi
2:00 AM59 °FClear.1 mph94%29.86 "Hg10 mi
1:30 AM61 °FClear.1 mph94%29.89 "Hg10 mi
1:00 AM61 °FClear.2 mph94%29.89 "Hg10 mi
12:30 AM59 °FClear.2 mph100%29.89 "Hg10 mi
12:00 AM61 °FClear.1 mph94%29.86 "Hg10 mi
11:30 PM
Sat, Jul 30
63 °FClear.1 mph94%29.86 "Hg10 mi
11:00 PM64 °FClear.1 mph88%29.86 "Hg10 mi
10:30 PM66 °FPassing clouds.3 mph83%29.86 "HgN/A
10:00 PM66 °FPassing clouds.3 mph83%29.86 "HgN/A
9:30 PM66 °FSunny.6 mph83%29.86 "Hg10 mi
9:00 PM68 °FPassing clouds.7 mph78%29.86 "HgN/A
8:30 PM70 °FSunny.2 mph78%29.83 "Hg10 mi
8:00 PM72 °FSunny.2 mph69%29.83 "Hg10 mi
7:30 PM72 °FPassing clouds.6 mph65%29.83 "HgN/A
7:00 PM73 °FPassing clouds.8 mph61%29.83 "HgN/A
6:30 PM75 °FSunny.9 mph54%29.83 "Hg10 mi
6:00 PM75 °FPassing clouds.8 mph54%29.80 "HgN/A
5:30 PM75 °FPassing clouds.10 mph54%29.80 "HgN/A
5:00 PM75 °FPassing clouds.13 mph57%29.83 "HgN/A
4:30 PM75 °FPassing clouds.12 mph54%29.83 "HgN/A
4:00 PM75 °FPassing clouds.13 mph57%29.83 "HgN/A
3:30 PM73 °FPassing clouds.13 mph57%29.83 "HgN/A
3:00 PM73 °FPassing clouds.12 mph61%29.83 "HgN/A
2:30 PM73 °FScattered clouds.13 mph57%29.83 "HgN/A
2:00 PM73 °FBroken clouds.12 mph61%29.83 "HgN/A
1:30 PM73 °FPassing clouds.12 mph61%29.83 "HgN/A
1:00 PM72 °FPassing clouds.9 mph65%29.83 "HgN/A
12:30 PM72 °FPassing clouds.8 mph65%29.83 "HgN/A
12:00 PM72 °FScattered clouds.8 mph69%29.83 "HgN/A
11:30 AM70 °FScattered clouds.10 mph69%29.83 "HgN/A
11:00 AM68 °FScattered clouds.7 mph73%29.83 "HgN/A
10:30 AM70 °FPartly sunny.9 mph69%29.83 "HgN/A
10:00 AM70 °FScattered clouds.10 mph73%29.83 "HgN/A
9:30 AM66 °FBroken clouds.7 mph78%29.83 "HgN/A
9:00 AM66 °FScattered clouds.13 mph78%29.83 "HgN/A
Weather by CustomWeather, © 2016

See weather overviewHow to use our weather pages